| time (UTC) | temp F | wind direction | speed MPH | gust MPH | rain 1hr in | rain 24hr in | rain mn in | humidity % | barometer mb |
| 20260831094623 | 51 | 281 | 0.0 | 0.0 | 0.00 | 0.00 | 0.00 | 71 | 1020.0 |
| 20260831093630 | 51 | 280 | 0.0 | 0.0 | 0.00 | 0.00 | 0.00 | 72 | 1020.0 |
| 20260831092617 | 50 | 275 | 0.0 | 0.0 | 0.00 | 0.00 | 0.00 | 75 | 1019.9 |
| 20260831091625 | 51 | 272 | 0.0 | 0.0 | 0.00 | 0.00 | 0.00 | 74 | 1020.0 |
| 20260831090618 | 51 | 271 | 0.0 | 0.0 | 0.00 | 0.00 | 0.00 | 72 | 1019.9 |
| 20260831085626 | 52 | 277 | 0.0 | 0.0 | 0.00 | 0.00 | 0.00 | 70 | 1019.8 |
| 20260831084613 | 52 | 264 | 0.0 | 0.0 | 0.00 | 0.00 | 0.00 | 70 | 1019.8 |
| 20260831083616 | 53 | 274 | 0.0 | 0.0 | 0.00 | 0.00 | 0.00 | 66 | 1019.8 |
| 20260831082626 | 53 | 271 | 0.0 | 0.0 | 0.00 | 0.00 | 0.00 | 64 | 1019.6 |
| 20260831081614 | 53 | 270 | 0.0 | 0.0 | 0.00 | 0.00 | 0.00 | 65 | 1019.6 |
| 20260831080623 | 53 | 268 | 0.0 | 0.0 | 0.00 | 0.00 | 0.00 | 64 | 1019.7 |
| 20260831075613 | 53 | 271 | 0.0 | 0.0 | 0.00 | 0.03 | 0.00 | 63 | 1019.7 |
| 20260831074626 | 53 | 277 | 0.0 | 0.0 | 0.00 | 0.03 | 0.00 | 63 | 1019.7 |
| 20260831073614 | 53 | 269 | 0.0 | 0.0 | 0.00 | 0.03 | 0.00 | 63 | 1019.7 |
| 20260831072622 | 53 | 261 | 0.0 | 0.0 | 0.00 | 0.03 | 0.00 | 62 | 1019.7 |
| 20260831071613 | 53 | 269 | 0.0 | 0.0 | 0.00 | 0.03 | 0.00 | 62 | 1019.7 |
| 20260831070621 | 54 | 274 | 0.0 | 0.0 | 0.00 | 0.03 | 0.00 | 61 | 1019.7 |
| 20260831065650 | 54 | 270 | 0.0 | 0.0 | 0.00 | 0.03 | 0.00 | 61 | 1019.6 |
| 20260831064636 | 53 | 281 | 0.0 | 0.0 | 0.00 | 0.03 | 0.00 | 63 | 1019.7 |
| 20260831063623 | 54 | 279 | 0.0 | 0.0 | 0.00 | 0.03 | 0.00 | 63 | 1019.6 |
| 20260831062615 | 55 | 233 | 0.0 | 0.0 | 0.00 | 0.03 | 0.00 | 63 | 1019.6 |
| 20260831061623 | 56 | 237 | 0.0 | 0.0 | 0.00 | 0.03 | 0.00 | 63 | 1019.6 |
| 20260831060624 | 55 | 238 | 0.0 | 0.0 | 0.00 | 0.03 | 0.00 | 61 | 1019.6 |
| 20260831055611 | 55 | 258 | 0.0 | 0.0 | 0.00 | 0.03 | 0.03 | 61 | 1019.6 |
| 20260831054619 | 56 | 283 | 0.0 | 1.0 | 0.00 | 0.03 | 0.03 | 59 | 1019.4 |
| 20260831053611 | 56 | 275 | 0.0 | 0.0 | 0.00 | 0.03 | 0.03 | 59 | 1019.4 |
| 20260831052619 | 56 | 279 | 0.0 | 0.0 | 0.00 | 0.03 | 0.03 | 59 | 1019.3 |
| 20260831051624 | 56 | 271 | 0.0 | 0.0 | 0.00 | 0.03 | 0.03 | 61 | 1019.3 |
| 20260831050630 | 56 | 269 | 0.0 | 0.0 | 0.00 | 0.03 | 0.03 | 61 | 1019.3 |
| 20260831045622 | 57 | 265 | 0.0 | 0.0 | 0.00 | 0.03 | 0.03 | 60 | 1019.2 |
| 20260831044649 | 57 | 266 | 0.0 | 0.0 | 0.00 | 0.03 | 0.03 | 59 | 1019.1 |
| 20260831043617 | 57 | 267 | 0.0 | 0.0 | 0.00 | 0.03 | 0.03 | 55 | 1019.1 |
| 20260831042624 | 58 | 269 | 0.0 | 0.0 | 0.00 | 0.03 | 0.03 | 51 | 1019.1 |
| 20260831040643 | 59 | 242 | 0.0 | 0.0 | 0.00 | 0.03 | 0.03 | 51 | 1019.0 |
| 20260831035627 | 60 | 245 | 0.0 | 0.0 | 0.00 | 0.03 | 0.03 | 50 | 1018.9 |
| 20260831034636 | 63 | 180 | 0.0 | 2.0 | 0.00 | 0.03 | 0.03 | 48 | 1018.8 |
| 20260831033620 | 61 | 263 | 0.0 | 1.0 | 0.00 | 0.03 | 0.03 | 41 | 1018.7 |
| 20260831032611 | 61 | 272 | 0.0 | 0.0 | 0.00 | 0.03 | 0.03 | 43 | 1018.6 |
| 20260831031618 | 61 | 256 | 0.0 | 0.0 | 0.00 | 0.03 | 0.03 | 47 | 1018.5 |
| 20260831030626 | 60 | 284 | 0.0 | 0.0 | 0.00 | 0.03 | 0.03 | 52 | 1018.5 |
| 20260831025613 | 60 | 271 | 0.0 | 0.0 | 0.00 | 0.03 | 0.03 | 55 | 1018.3 |
| 20260831024619 | 60 | 261 | 0.0 | 1.0 | 0.00 | 0.03 | 0.03 | 56 | 1018.1 |
| 20260831023627 | 60 | 265 | 0.0 | 0.0 | 0.00 | 0.03 | 0.03 | 56 | 1018.0 |
| 20260831022615 | 61 | 260 | 0.0 | 1.0 | 0.00 | 0.03 | 0.03 | 57 | 1017.9 |
| 20260831021623 | 62 | 258 | 0.0 | 0.0 | 0.00 | 0.03 | 0.03 | 58 | 1017.7 |
| 20260831020614 | 63 | 268 | 0.0 | 0.0 | 0.00 | 0.03 | 0.03 | 56 | 1017.7 |
| 20260831015622 | 64 | 261 | 0.0 | 0.0 | 0.00 | 0.03 | 0.03 | 54 | 1017.5 |
| 20260831014628 | 66 | 264 | 0.0 | 0.0 | 0.00 | 0.03 | 0.03 | 50 | 1017.5 |
| 20260831013613 | 68 | 250 | 0.0 | 0.0 | 0.00 | 0.03 | 0.03 | 47 | 1017.5 |
| 20260831012619 | 69 | 260 | 0.0 | 0.0 | 0.00 | 0.03 | 0.03 | 44 | 1017.5 |
| 20260831011629 | 69 | 278 | 0.0 | 0.0 | 0.00 | 0.03 | 0.03 | 44 | 1017.5 |
| 20260831010616 | 69 | 262 | 0.0 | 0.0 | 0.00 | 0.03 | 0.03 | 44 | 1017.6 |
| 20260831005622 | 69 | 271 | 0.0 | 0.0 | 0.00 | 0.03 | 0.03 | 45 | 1017.5 |
| 20260831004629 | 69 | 277 | 0.0 | 0.0 | 0.00 | 0.03 | 0.03 | 45 | 1017.6 |
| 20260831003621 | 70 | 261 | 0.0 | 4.0 | 0.00 | 0.03 | 0.03 | 44 | 1017.6 |
| 20260831002628 | 70 | 255 | 0.0 | 0.0 | 0.00 | 0.03 | 0.03 | 44 | 1017.6 |
| 20260831001636 | 72 | 292 | 0.0 | 0.0 | 0.00 | 0.03 | 0.03 | 40 | 1017.4 |
| 20260831000620 | 72 | 267 | 0.0 | 0.0 | 0.00 | 0.03 | 0.03 | 40 | 1017.5 |
| 20260830235612 | 70 | 246 | 0.0 | 0.0 | 0.00 | 0.03 | 0.03 | 42 | 1017.5 |
| 20260830234619 | 70 | 94 | 0.0 | 3.0 | 0.00 | 0.03 | 0.03 | 49 | 1017.6 |
| 20260830233626 | 72 | 69 | 0.0 | 3.0 | 0.00 | 0.03 | 0.03 | 44 | 1017.5 |
| 20260830232634 | 72 | 55 | 0.0 | 0.0 | 0.00 | 0.03 | 0.03 | 45 | 1017.5 |
| 20260830231620 | 71 | 315 | 0.0 | 1.0 | 0.00 | 0.03 | 0.03 | 41 | 1017.4 |
| 20260830230612 | 70 | 302 | 0.0 | 5.0 | 0.00 | 0.03 | 0.03 | 43 | 1017.3 |
| 20260830225623 | 71 | 295 | 2.0 | 10.0 | 0.00 | 0.03 | 0.03 | 41 | 1017.4 |
| 20260830224651 | 71 | 244 | 2.0 | 12.0 | 0.00 | 0.03 | 0.03 | 39 | 1017.3 |
| 20260830223618 | 70 | 219 | 4.0 | 22.0 | 0.00 | 0.03 | 0.03 | 43 | 1017.4 |
| 20260830222629 | 70 | 205 | 2.0 | 3.0 | 0.00 | 0.03 | 0.03 | 43 | 1017.5 |
| 20260830221617 | 70 | 213 | 1.0 | 5.0 | 0.00 | 0.03 | 0.03 | 44 | 1017.7 |
| 20260830220624 | 70 | 236 | 0.0 | 3.0 | 0.00 | 0.03 | 0.03 | 47 | 1018.0 |
| 20260830215630 | 69 | 231 | 0.0 | 1.0 | 0.00 | 0.03 | 0.03 | 46 | 1018.0 |
| 20260830214619 | 68 | 275 | 0.0 | 2.0 | 0.00 | 0.03 | 0.03 | 47 | 1017.9 |
| 20260830213624 | 68 | 253 | 0.0 | 2.0 | 0.00 | 0.03 | 0.03 | 47 | 1018.1 |
| 20260830212628 | 67 | 226 | 1.0 | 21.0 | 0.00 | 0.03 | 0.03 | 51 | 1018.2 |
| 20260830211614 | 70 | 257 | 3.0 | 9.0 | 0.00 | 0.03 | 0.03 | 40 | 1018.1 |
| 20260830210625 | 70 | 258 | 0.0 | 12.0 | 0.00 | 0.03 | 0.03 | 39 | 1017.9 |
| 20260830205612 | 71 | 232 | 0.0 | 10.0 | 0.00 | 0.03 | 0.03 | 37 | 1017.9 |
| 20260830204619 | 72 | 310 | 0.0 | 9.0 | 0.00 | 0.03 | 0.03 | 36 | 1017.9 |
| 20260830203625 | 72 | 254 | 4.0 | 11.0 | 0.00 | 0.03 | 0.03 | 34 | 1018.1 |
| 20260830202615 | 72 | 207 | 3.0 | 17.0 | 0.00 | 0.03 | 0.03 | 38 | 1017.9 |
| 20260830201622 | 71 | 229 | 4.0 | 16.0 | 0.00 | 0.03 | 0.03 | 33 | 1018.0 |
| 20260830200627 | 71 | 232 | 2.0 | 17.0 | 0.00 | 0.03 | 0.03 | 37 | 1018.0 |
| 20260830195615 | 71 | 245 | 5.0 | 21.0 | 0.00 | 0.03 | 0.03 | 38 | 1018.0 |
| 20260830194620 | 71 | 263 | 9.0 | 18.0 | 0.00 | 0.03 | 0.03 | 37 | 1018.0 |
| 20260830193628 | 71 | 257 | 2.0 | 12.0 | 0.00 | 0.03 | 0.03 | 40 | 1018.2 |
| 20260830192613 | 70 | 225 | 1.0 | 8.0 | 0.00 | 0.03 | 0.03 | 40 | 1018.0 |
| 20260830191620 | 70 | 272 | 0.0 | 15.0 | 0.00 | 0.03 | 0.03 | 44 | 1018.1 |
| 20260830190647 | 69 | 215 | 3.0 | 9.0 | 0.00 | 0.03 | 0.03 | 43 | 1018.0 |
| 20260830185619 | 69 | 206 | 1.0 | 10.0 | 0.00 | 0.03 | 0.03 | 44 | 1018.2 |
| 20260830184626 | 69 | 250 | 1.0 | 10.0 | 0.00 | 0.03 | 0.03 | 44 | 1018.2 |
| 20260830183613 | 69 | 229 | 6.0 | 17.0 | 0.00 | 0.03 | 0.03 | 46 | 1018.2 |
| 20260830182621 | 69 | 262 | 2.0 | 15.0 | 0.00 | 0.03 | 0.03 | 49 | 1018.2 |
| 20260830181612 | 68 | 251 | 1.0 | 10.0 | 0.00 | 0.03 | 0.03 | 50 | 1018.0 |
| 20260830180616 | 68 | 266 | 0.0 | 16.0 | 0.00 | 0.03 | 0.03 | 49 | 1018.1 |
| 20260830175625 | 68 | 235 | 1.0 | 19.0 | 0.00 | 0.10 | 0.03 | 50 | 1018.0 |
| 20260830174633 | 68 | 222 | 6.0 | 14.0 | 0.00 | 0.10 | 0.03 | 49 | 1018.1 |
| 20260830173619 | 67 | 242 | 1.0 | 9.0 | 0.00 | 0.10 | 0.03 | 52 | 1018.2 |
| 20260830172630 | 67 | 240 | 6.0 | 16.0 | 0.00 | 0.10 | 0.03 | 51 | 1018.2 |
| 20260830171615 | 67 | 229 | 3.0 | 12.0 | 0.00 | 0.10 | 0.03 | 52 | 1018.0 |
| 20260830170623 | 67 | 232 | 2.0 | 17.0 | 0.00 | 0.10 | 0.03 | 54 | 1018.0 |
| 20260830165630 | 67 | 227 | 2.0 | 11.0 | 0.00 | 0.10 | 0.03 | 53 | 1018.0 |
| 20260830164620 | 66 | 243 | 1.0 | 14.0 | 0.00 | 0.10 | 0.03 | 52 | 1017.8 |
| 20260830163626 | 66 | 257 | 2.0 | 10.0 | 0.00 | 0.10 | 0.03 | 53 | 1018.0 |
| 20260830162612 | 66 | 244 | 1.0 | 9.0 | 0.00 | 0.10 | 0.03 | 52 | 1017.9 |
| 20260830161619 | 64 | 206 | 1.0 | 10.0 | 0.00 | 0.10 | 0.03 | 59 | 1017.9 |
| 20260830160611 | 64 | 152 | 1.0 | 6.0 | 0.00 | 0.10 | 0.03 | 62 | 1017.8 |
| 20260830155620 | 63 | 149 | 2.0 | 5.0 | 0.00 | 0.17 | 0.03 | 65 | 1017.9 |
| 20260830154628 | 61 | 173 | 0.0 | 0.0 | 0.00 | 0.17 | 0.03 | 68 | 1017.9 |
| 20260830153616 | 60 | 194 | 0.0 | 0.0 | 0.00 | 0.17 | 0.03 | 74 | 1017.9 |
| 20260830152628 | 59 | 212 | 0.0 | 0.0 | 0.00 | 0.17 | 0.03 | 77 | 1017.9 |
| 20260830151615 | 58 | 228 | 0.0 | 1.0 | 0.00 | 0.17 | 0.03 | 77 | 1017.8 |
| 20260830150623 | 58 | 228 | 0.0 | 0.0 | 0.00 | 0.17 | 0.03 | 77 | 1017.8 |
| 20260830145628 | 59 | 211 | 0.0 | 0.0 | 0.00 | 0.21 | 0.03 | 74 | 1017.6 |
| 20260830144617 | 58 | 144 | 0.0 | 2.0 | 0.00 | 0.21 | 0.03 | 76 | 1017.3 |
| 20260830143642 | 57 | 163 | 0.0 | 0.0 | 0.00 | 0.21 | 0.03 | 79 | 1017.5 |
| 20260830142626 | 59 | 228 | 1.0 | 10.0 | 0.00 | 0.21 | 0.03 | 75 | 1017.9 |
| 20260830141632 | 59 | 138 | 2.0 | 10.0 | 0.00 | 0.21 | 0.03 | 76 | 1017.3 |
| 20260830140615 | 58 | 169 | 0.0 | 2.0 | 0.00 | 0.21 | 0.03 | 75 | 1017.6 |
| 20260830135625 | 60 | 212 | 2.0 | 8.0 | 0.00 | 0.21 | 0.03 | 70 | 1018.3 |
| 20260830134612 | 57 | 113 | 1.0 | 7.0 | 0.00 | 0.21 | 0.03 | 76 | 1016.8 |
| 20260830133618 | 57 | 192 | 0.0 | 0.0 | 0.00 | 0.21 | 0.03 | 78 | 1017.6 |
| 20260830132624 | 58 | 201 | 0.0 | 3.0 | 0.00 | 0.21 | 0.03 | 75 | 1017.9 |
| 20260830131615 | 58 | 164 | 0.0 | 10.0 | 0.00 | 0.21 | 0.03 | 79 | 1017.7 |
| 20260830130622 | 58 | 126 | 3.0 | 8.0 | 0.00 | 0.21 | 0.03 | 80 | 1017.3 |
| 20260830125630 | 57 | 159 | 0.0 | 3.0 | 0.00 | 0.21 | 0.03 | 80 | 1017.2 |
| 20260830124618 | 57 | 238 | 0.0 | 0.0 | 0.00 | 0.21 | 0.03 | 79 | 1017.1 |
| 20260830123629 | 59 | 236 | 1.0 | 10.0 | 0.00 | 0.21 | 0.03 | 75 | 1016.9 |
| 20260830122617 | 57 | 134 | 1.0 | 7.0 | 0.00 | 0.21 | 0.03 | 83 | 1016.9 |
| 20260830121623 | 56 | 241 | 0.0 | 0.0 | 0.00 | 0.21 | 0.03 | 80 | 1017.6 |
| 20260830120624 | 55 | 255 | 0.0 | 0.0 | 0.00 | 0.21 | 0.03 | 81 | 1016.9 |
| 20260830115630 | 56 | 255 | 0.0 | 0.0 | 0.00 | 0.21 | 0.03 | 82 | 1016.9 |
| 20260830114622 | 56 | 255 | 0.0 | 0.0 | 0.00 | 0.21 | 0.03 | 80 | 1016.8 |
| 20260830113627 | 55 | 268 | 0.0 | 0.0 | 0.00 | 0.21 | 0.03 | 81 | 1016.7 |
| 20260830112613 | 55 | 207 | 0.0 | 0.0 | 0.00 | 0.21 | 0.03 | 81 | 1016.5 |
| 20260830111641 | 55 | 207 | 0.0 | 0.0 | 0.00 | 0.21 | 0.03 | 81 | 1016.7 |
| 20260830110631 | 55 | 221 | 0.0 | 0.0 | 0.00 | 0.21 | 0.03 | 80 | 1016.9 |
| 20260830105618 | 56 | 198 | 0.0 | 0.0 | 0.00 | 0.21 | 0.03 | 79 | 1017.0 |
| 20260830104625 | 57 | 183 | 0.0 | 0.0 | 0.00 | 0.21 | 0.03 | 77 | 1017.3 |
| 20260830103650 | 57 | 188 | 0.0 | 2.0 | 0.00 | 0.21 | 0.03 | 78 | 1017.4 |
| 20260830102619 | 56 | 196 | 0.0 | 0.0 | 0.00 | 0.21 | 0.03 | 79 | 1017.6 |
| 20260830101626 | 56 | 192 | 0.0 | 1.0 | 0.00 | 0.21 | 0.03 | 78 | 1017.5 |
| 20260830100613 | 57 | 205 | 1.0 | 6.0 | 0.00 | 0.21 | 0.03 | 76 | 1017.4 |
| 20260830095621 | 58 | 182 | 0.0 | 3.0 | 0.00 | 0.21 | 0.03 | 76 | 1017.3 |